Regional Weather Roundup
Issued by NWS

Home | Current Version | Previous Version | Graphics & Text | Print | Product List | Glossary On
Versions: 1 2 3 4 5 6 7 8 9 10 11 12 13 14 15 16 17 18 19 20 21 22 23 24 25 26 27 28 29 30 31 32 33 34 35 36 37 38 39 40 41 42 43 44 45 46 47 48 49 50
000
ASUS45 KCYS 221910
RWRWY

WYOMING REGIONAL WEATHER ROUNDUP
NATIONAL WEATHER SERVICE CHEYENNE WY
1200 PM MST SUN JAN 22 2017

NOTE:  "FAIR" INDICATES FEW OR NO CLOUDS BELOW 12,000 FEET
WITH NO SIGNIFICANT WEATHER AND/OR OBSTRUCTIONS TO VISIBILITY.

WYZ001-222000-
YELLOWSTONE NATIONAL PARK

CITY           SKY/WX    TMP DP  RH WIND       PRES   REMARKS
LK YELLOWSTONE   N/A     20  17  88 CALM      29.84F
W YELLOWSTONE  NOT AVBL

$$
WYZ002>013-054>058-071-098>099-222000-
NORTHERN WYOMING

CITY           SKY/WX    TMP DP  RH WIND       PRES   REMARKS
JACKSON        PTSUNNY   27  19  74 CALM      29.87F
CODY           FAIR      38  13  35 SW8       29.83F WCI  32
GREYBULL       FAIR      17  10  74 E5        29.90F WCI  10
WORLAND        FAIR      21  15  78 NE3       29.87F
SHERIDAN       FAIR      33  22  63 SW12      29.84F WCI  24
BUFFALO        FAIR      35  20  54 S13       29.84F WCI  26
GILLETTE       FAIR      38  23  55 W9        29.85S WCI  31
HULETT         FAIR      32  23  69 SW14      29.85F WCI  22
NEWCASTLE      FAIR      28  21  74 CALM      29.90S

$$
WYZ014>020-022>026-101>103-222000-
CENTRAL WYOMING

CITY           SKY/WX    TMP DP  RH WIND       PRES   REMARKS
BIG PINEY      FAIR      11   7  84 NE3       29.93F
PINEDALE       FAIR      16  14  93 SE3       29.93F
DUBOIS         NOT AVBL
LANDER         FAIR      29  11  47 CALM      29.86F
RIVERTON       FAIR     N/A N/A N/A CALM      29.88F
CASPER         FAIR      33  15  47 SW23G32   29.90F WCI  21
DOUGLAS        FAIR      41  13  31 W25       29.88F

$$
WYZ021-027>030-104>119-222000-
SOUTHERN WYOMING

CITY           SKY/WX    TMP DP  RH WIND       PRES   REMARKS
EVANSTON       PTSUNNY   24  11  57 S3        29.89F
ROCK SPRINGS   FAIR      23  13  65 E5        29.94F WCI  17
RAWLINS        FAIR      25  15  66 S15       29.96F WCI  13
LARAMIE        FAIR      26  12  55 SW9       29.90F WCI  17
CHEYENNE       FAIR      36   8  31 NW18G25   29.91F WCI  26
TORRINGTON     FAIR      43  15  32 W20       29.90F

$$



USA.gov is the U.S. government's official web portal to all federal, state and local government web resources and services.